| time (UTC) | temp C | wind direction | speed KPH | gust KPH | rain 1hr cm | rain 24hr cm | rain mn cm | humidity % | barometer mb |
| 20260504050532 | 5 | 0 | 0.0 | 3.2 | 0.00 | 0.00 | 0.00 | 72 | 1010.3 |
| 20260504045530 | 4 | 115 | 0.0 | 3.2 | 0.00 | 0.00 | 0.00 | 73 | 1010.4 |
| 20260504045031 | 4 | 164 | 0.0 | 1.6 | 0.00 | 0.00 | 0.00 | 73 | 1010.5 |
| 20260504044543 | 4 | 0 | 0.0 | 3.2 | 0.00 | 0.00 | 0.00 | 74 | 1010.5 |
| 20260504044029 | 4 | 0 | 0.0 | 3.2 | 0.00 | 0.00 | 0.00 | 74 | 1010.6 |
| 20260504043531 | 3 | 0 | 0.0 | 3.2 | 0.00 | 0.00 | 0.00 | 74 | 1010.7 |
| 20260504043042 | 3 | 0 | 0.0 | 3.2 | 0.00 | 0.00 | 0.00 | 74 | 1010.6 |
| 20260504042531 | 3 | 0 | 0.0 | 1.6 | 0.00 | 0.00 | 0.00 | 75 | 1010.7 |
| 20260504042030 | 3 | 0 | 0.0 | 0.0 | 0.00 | 0.00 | 0.00 | 74 | 1010.6 |
| 20260504041542 | 3 | 0 | 0.0 | 1.6 | 0.00 | 0.00 | 0.00 | 74 | 1010.9 |
| 20260504041028 | 3 | 0 | 0.0 | 1.6 | 0.00 | 0.00 | 0.00 | 74 | 1010.8 |
| 20260504040533 | 3 | 32 | 0.0 | 1.6 | 0.00 | 0.00 | 0.00 | 75 | 1010.8 |
| 20260504040103 | 3 | 0 | 0.0 | 1.6 | 0.00 | 0.00 | 0.00 | 72 | 1010.8 |
| 20260504035533 | 3 | 0 | 0.0 | 1.6 | 0.00 | 0.00 | 0.00 | 73 | 1010.8 |
| 20260504035031 | 3 | 32 | 0.0 | 3.2 | 0.00 | 0.00 | 0.00 | 75 | 1010.7 |
| 20260504034540 | 3 | 32 | 0.0 | 3.2 | 0.00 | 0.00 | 0.00 | 75 | 1010.8 |
| 20260504034032 | 3 | 0 | 0.0 | 1.6 | 0.00 | 0.00 | 0.00 | 75 | 1010.7 |
| 20260504033529 | 3 | 0 | 0.0 | 3.2 | 0.00 | 0.00 | 0.00 | 75 | 1010.7 |
| 20260504033046 | 3 | 0 | 0.0 | 3.2 | 0.00 | 0.00 | 0.00 | 75 | 1010.8 |
| 20260504032534 | 3 | 0 | 0.0 | 1.6 | 0.00 | 0.00 | 0.00 | 74 | 1010.7 |
| 20260504032032 | 2 | 32 | 0.0 | 3.2 | 0.00 | 0.00 | 0.00 | 74 | 1010.7 |
| 20260504031544 | 2 | 0 | 0.0 | 3.2 | 0.00 | 0.00 | 0.00 | 74 | 1010.9 |
| 20260504031028 | 2 | 0 | 0.0 | 3.2 | 0.00 | 0.00 | 0.00 | 74 | 1010.9 |
| 20260504030534 | 2 | 0 | 0.0 | 3.2 | 0.00 | 0.00 | 0.00 | 73 | 1010.9 |
| 20260504030041 | 2 | 0 | 0.0 | 0.0 | 0.00 | 0.00 | 0.00 | 73 | 1010.9 |
| 20260504025532 | 2 | 0 | 0.0 | 3.2 | 0.00 | 0.00 | 0.00 | 73 | 1010.8 |
| 20260504025033 | 2 | 0 | 0.0 | 3.2 | 0.00 | 0.00 | 0.00 | 72 | 1010.8 |
| 20260504024542 | 2 | 0 | 0.0 | 3.2 | 0.00 | 0.00 | 0.00 | 72 | 1010.8 |
| 20260504024033 | 2 | 0 | 0.0 | 3.2 | 0.00 | 0.00 | 0.00 | 72 | 1010.8 |
| 20260504023531 | 2 | 0 | 0.0 | 3.2 | 0.00 | 0.00 | 0.00 | 72 | 1010.7 |
| 20260504023054 | 2 | 32 | 0.0 | 3.2 | 0.00 | 0.00 | 0.00 | 72 | 1010.7 |
| 20260504022531 | 3 | 0 | 0.0 | 3.2 | 0.00 | 0.00 | 0.00 | 71 | 1010.6 |
| 20260504022028 | 3 | 32 | 0.0 | 1.6 | 0.00 | 0.00 | 0.00 | 72 | 1010.7 |
| 20260504021542 | 3 | 0 | 0.0 | 0.0 | 0.00 | 0.00 | 0.00 | 71 | 1010.7 |
| 20260504021031 | 3 | 0 | 0.0 | 0.0 | 0.00 | 0.00 | 0.00 | 72 | 1010.6 |
| 20260504020531 | 3 | 0 | 0.0 | 0.0 | 0.00 | 0.00 | 0.00 | 71 | 1010.7 |
| 20260504020041 | 3 | 0 | 0.0 | 0.0 | 0.00 | 0.00 | 0.00 | 71 | 1010.8 |
| 20260504015528 | 3 | 0 | 0.0 | 0.0 | 0.00 | 0.00 | 0.00 | 71 | 1010.6 |
| 20260504015032 | 3 | 0 | 0.0 | 0.0 | 0.00 | 0.00 | 0.00 | 70 | 1010.7 |
| 20260504014553 | 3 | 0 | 0.0 | 0.0 | 0.00 | 0.00 | 0.00 | 70 | 1010.7 |
| 20260504014031 | 3 | 0 | 0.0 | 0.0 | 0.00 | 0.00 | 0.00 | 70 | 1010.8 |
| 20260504013531 | 3 | 0 | 0.0 | 0.0 | 0.00 | 0.00 | 0.00 | 70 | 1010.7 |
| 20260504013046 | 3 | 0 | 0.0 | 0.0 | 0.00 | 0.00 | 0.00 | 68 | 1010.7 |
| 20260504012534 | 3 | 0 | 0.0 | 0.0 | 0.00 | 0.00 | 0.00 | 68 | 1010.6 |
| 20260504012031 | 3 | 0 | 0.0 | 0.0 | 0.00 | 0.00 | 0.00 | 67 | 1010.6 |
| 20260504011546 | 4 | 0 | 0.0 | 0.0 | 0.00 | 0.00 | 0.00 | 67 | 1010.6 |
| 20260504011028 | 4 | 0 | 0.0 | 0.0 | 0.00 | 0.00 | 0.00 | 66 | 1010.6 |
| 20260504010528 | 4 | 0 | 0.0 | 0.0 | 0.00 | 0.00 | 0.00 | 65 | 1010.4 |
| 20260504010051 | 4 | 0 | 0.0 | 0.0 | 0.00 | 0.00 | 0.00 | 65 | 1010.3 |
| 20260504005530 | 5 | 0 | 0.0 | 0.0 | 0.00 | 0.00 | 0.00 | 65 | 1010.4 |
| 20260504005031 | 5 | 0 | 0.0 | 0.0 | 0.00 | 0.00 | 0.00 | 63 | 1010.2 |
| 20260504004548 | 5 | 0 | 0.0 | 0.0 | 0.00 | 0.00 | 0.00 | 62 | 1010.3 |
| 20260504004028 | 5 | 0 | 0.0 | 0.0 | 0.00 | 0.00 | 0.00 | 62 | 1010.3 |
| 20260504003534 | 5 | 0 | 0.0 | 0.0 | 0.00 | 0.00 | 0.00 | 61 | 1010.3 |
| 20260504003047 | 6 | 0 | 0.0 | 0.0 | 0.00 | 0.00 | 0.00 | 60 | 1010.3 |
| 20260504002531 | 6 | 0 | 0.0 | 0.0 | 0.00 | 0.00 | 0.00 | 60 | 1010.2 |
| 20260504002028 | 6 | 0 | 0.0 | 1.6 | 0.00 | 0.00 | 0.00 | 59 | 1010.3 |
| 20260504001601 | 6 | 0 | 0.0 | 3.2 | 0.00 | 0.00 | 0.00 | 58 | 1010.2 |
| 20260504001032 | 6 | 31 | 0.0 | 3.2 | 0.00 | 0.00 | 0.00 | 57 | 1010.1 |
| 20260504000530 | 6 | 0 | 0.0 | 3.2 | 0.00 | 0.00 | 0.00 | 57 | 1010.0 |
| 20260504000101 | 7 | 350 | 0.0 | 4.8 | 0.00 | 0.00 | 0.00 | 56 | 1010.0 |
| 20260503235529 | 7 | 0 | 0.0 | 4.8 | 0.00 | 0.00 | 0.00 | 56 | 1010.0 |
| 20260503235029 | 7 | 174 | 1.6 | 4.8 | 0.00 | 0.00 | 0.00 | 55 | 1010.0 |
| 20260503234542 | 7 | 0 | 1.6 | 4.8 | 0.00 | 0.00 | 0.00 | 54 | 1010.0 |
| 20260503234029 | 7 | 292 | 1.6 | 6.4 | 0.00 | 0.00 | 0.00 | 53 | 1009.9 |
| 20260503233528 | 7 | 311 | 3.2 | 8.0 | 0.00 | 0.00 | 0.00 | 53 | 1009.9 |
| 20260503233041 | 7 | 301 | 3.2 | 8.0 | 0.00 | 0.00 | 0.00 | 52 | 1009.9 |
| 20260503232530 | 7 | 321 | 1.6 | 8.0 | 0.00 | 0.00 | 0.00 | 51 | 1009.9 |
| 20260503232027 | 7 | 284 | 3.2 | 8.0 | 0.00 | 0.00 | 0.00 | 50 | 1009.7 |
| 20260503231541 | 7 | 349 | 3.2 | 8.0 | 0.00 | 0.00 | 0.00 | 49 | 1009.8 |
| 20260503231032 | 8 | 298 | 0.0 | 4.8 | 0.00 | 0.00 | 0.00 | 49 | 1009.6 |
| 20260503230527 | 8 | 348 | 1.6 | 12.9 | 0.00 | 0.00 | 0.00 | 48 | 1009.6 |
| 20260503230048 | 8 | 271 | 3.2 | 12.9 | 0.00 | 0.00 | 0.00 | 47 | 1009.4 |
| 20260503225530 | 8 | 297 | 3.2 | 16.1 | 0.00 | 0.00 | 0.00 | 48 | 1009.4 |
| 20260503225033 | 8 | 287 | 1.6 | 16.1 | 0.00 | 0.00 | 0.00 | 46 | 1009.6 |
| 20260503224547 | 8 | 340 | 1.6 | 4.8 | 0.00 | 0.00 | 0.00 | 46 | 1009.5 |
| 20260503224028 | 8 | 234 | 1.6 | 4.8 | 0.00 | 0.00 | 0.00 | 44 | 1009.5 |
| 20260503223531 | 8 | 0 | 1.6 | 6.4 | 0.00 | 0.00 | 0.00 | 44 | 1009.4 |
| 20260503223048 | 8 | 306 | 1.6 | 8.0 | 0.00 | 0.00 | 0.00 | 43 | 1009.3 |
| 20260503222528 | 8 | 0 | 1.6 | 9.7 | 0.00 | 0.00 | 0.00 | 40 | 1009.4 |
| 20260503222027 | 9 | 280 | 1.6 | 9.7 | 0.00 | 0.00 | 0.00 | 42 | 1009.3 |
| 20260503221548 | 9 | 171 | 1.6 | 16.1 | 0.00 | 0.00 | 0.00 | 44 | 1009.5 |
| 20260503221028 | 8 | 304 | 3.2 | 16.1 | 0.00 | 0.00 | 0.00 | 41 | 1009.5 |
| 20260503220533 | 8 | 71 | 3.2 | 16.1 | 0.00 | 0.00 | 0.00 | 41 | 1009.3 |
| 20260503220049 | 8 | 96 | 3.2 | 14.5 | 0.00 | 0.00 | 0.00 | 41 | 1009.3 |
| 20260503215532 | 8 | 38 | 1.6 | 14.5 | 0.00 | 0.00 | 0.00 | 39 | 1009.4 |
| 20260503215031 | 9 | 325 | 4.8 | 11.3 | 0.00 | 0.00 | 0.00 | 40 | 1009.3 |
| 20260503214544 | 9 | 240 | 3.2 | 11.3 | 0.00 | 0.00 | 0.00 | 40 | 1009.4 |
| 20260503214030 | 9 | 296 | 3.2 | 11.3 | 0.00 | 0.00 | 0.00 | 39 | 1009.3 |
| 20260503213528 | 9 | 308 | 3.2 | 9.7 | 0.00 | 0.00 | 0.00 | 37 | 1009.3 |
| 20260503213041 | 9 | 250 | 3.2 | 8.0 | 0.00 | 0.00 | 0.00 | 37 | 1009.4 |
| 20260503212527 | 9 | 338 | 1.6 | 6.4 | 0.00 | 0.00 | 0.00 | 38 | 1009.1 |
| 20260503212031 | 9 | 350 | 1.6 | 12.9 | 0.00 | 0.00 | 0.00 | 36 | 1009.1 |
| 20260503211541 | 9 | 310 | 1.6 | 12.9 | 0.00 | 0.00 | 0.00 | 36 | 1009.2 |
| 20260503211029 | 9 | 338 | 1.6 | 12.9 | 0.00 | 0.00 | 0.00 | 35 | 1009.2 |
| 20260503210534 | 9 | 283 | 4.8 | 12.9 | 0.00 | 0.00 | 0.00 | 34 | 1009.1 |
| 20260503210045 | 9 | 307 | 4.8 | 14.5 | 0.00 | 0.00 | 0.00 | 36 | 1009.2 |
| 20260503205530 | 9 | 285 | 4.8 | 14.5 | 0.00 | 0.00 | 0.00 | 34 | 1009.2 |
| 20260503205031 | 9 | 299 | 3.2 | 12.9 | 0.00 | 0.00 | 0.00 | 34 | 1009.2 |
| 20260503204545 | 9 | 90 | 4.8 | 12.9 | 0.00 | 0.00 | 0.00 | 34 | 1009.1 |
| 20260503204034 | 9 | 69 | 4.8 | 16.1 | 0.00 | 0.00 | 0.00 | 35 | 1009.3 |
| 20260503203530 | 9 | 203 | 3.2 | 16.1 | 0.00 | 0.00 | 0.00 | 37 | 1009.4 |
| 20260503203051 | 9 | 301 | 4.8 | 16.1 | 0.00 | 0.00 | 0.00 | 35 | 1008.7 |
| 20260503202529 | 9 | 258 | 4.8 | 16.1 | 0.00 | 0.00 | 0.00 | 34 | 1009.2 |
| 20260503202029 | 10 | 348 | 3.2 | 11.3 | 0.00 | 0.00 | 0.00 | 35 | 1009.4 |
| 20260503201549 | 10 | 224 | 3.2 | 11.3 | 0.00 | 0.00 | 0.00 | 39 | 1009.5 |
| 20260503201030 | 8 | 32 | 1.6 | 9.7 | 0.00 | 0.00 | 0.00 | 38 | 1009.5 |
| 20260503200528 | 8 | 299 | 1.6 | 12.9 | 0.00 | 0.00 | 0.00 | 43 | 1009.5 |
| 20260503200041 | 8 | 219 | 4.8 | 12.9 | 0.00 | 0.00 | 0.00 | 37 | 1009.5 |
| 20260503195530 | 8 | 245 | 3.2 | 14.5 | 0.00 | 0.00 | 0.00 | 42 | 1009.5 |
| 20260503195034 | 8 | 215 | 4.8 | 16.1 | 0.00 | 0.00 | 0.00 | 38 | 1009.6 |
| 20260503194544 | 8 | 311 | 4.8 | 16.1 | 0.00 | 0.00 | 0.00 | 36 | 1009.8 |
| 20260503194030 | 9 | 338 | 4.8 | 16.1 | 0.00 | 0.00 | 0.00 | 35 | 1009.9 |
| 20260503193532 | 9 | 316 | 1.6 | 12.9 | 0.00 | 0.00 | 0.00 | 39 | 1010.0 |
| 20260503193049 | 9 | 299 | 3.2 | 17.7 | 0.00 | 0.00 | 0.00 | 37 | 1009.9 |
| 20260503192528 | 9 | 66 | 6.4 | 17.7 | 0.00 | 0.00 | 0.00 | 41 | 1010.0 |
| 20260503192031 | 9 | 352 | 3.2 | 11.3 | 0.00 | 0.00 | 0.00 | 39 | 1009.9 |
| 20260503191543 | 9 | 348 | 3.2 | 14.5 | 0.00 | 0.00 | 0.00 | 36 | 1009.8 |
| 20260503191031 | 9 | 315 | 3.2 | 17.7 | 0.00 | 0.00 | 0.00 | 38 | 1010.0 |
| 20260503190528 | 8 | 206 | 4.8 | 17.7 | 0.00 | 0.00 | 0.00 | 40 | 1010.2 |
| 20260503190043 | 8 | 5 | 3.2 | 14.5 | 0.00 | 0.00 | 0.00 | 43 | 1010.3 |
| 20260503185528 | 8 | 24 | 4.8 | 14.5 | 0.00 | 0.00 | 0.00 | 42 | 1009.9 |
| 20260503185028 | 8 | 194 | 3.2 | 19.3 | 0.00 | 0.00 | 0.00 | 40 | 1010.1 |
| 20260503184541 | 8 | 271 | 6.4 | 19.3 | 0.00 | 0.00 | 0.00 | 41 | 1010.1 |
| 20260503184030 | 7 | 304 | 6.4 | 14.5 | 0.00 | 0.00 | 0.00 | 44 | 1010.1 |
| 20260503183528 | 7 | 299 | 3.2 | 16.1 | 0.00 | 0.00 | 0.00 | 47 | 1010.1 |
| 20260503183100 | 6 | 227 | 4.8 | 16.1 | 0.00 | 0.00 | 0.00 | 43 | 1010.2 |
| 20260503182532 | 7 | 257 | 4.8 | 12.9 | 0.00 | 0.00 | 0.00 | 45 | 1010.1 |
| 20260503182028 | 7 | 295 | 3.2 | 12.9 | 0.00 | 0.00 | 0.00 | 43 | 1010.4 |
| 20260503181603 | 7 | 295 | 4.8 | 12.9 | 0.00 | 0.00 | 0.00 | 44 | 1010.2 |
| 20260503181031 | 6 | 352 | 3.2 | 12.9 | 0.00 | 0.00 | 0.00 | 50 | 1010.1 |
| 20260503180528 | 6 | 61 | 1.6 | 14.5 | 0.00 | 0.00 | 0.00 | 48 | 1010.1 |
| 20260503180042 | 6 | 67 | 1.6 | 19.3 | 0.00 | 0.00 | 0.00 | 50 | 1010.0 |
| 20260503175528 | 5 | 298 | 3.2 | 19.3 | 0.00 | 0.00 | 0.00 | 48 | 1010.3 |
| 20260503175028 | 5 | 41 | 3.2 | 14.5 | 0.00 | 0.00 | 0.00 | 50 | 1010.4 |
| 20260503174542 | 5 | 262 | 4.8 | 14.5 | 0.00 | 0.00 | 0.00 | 49 | 1010.4 |
| 20260503174028 | 5 | 227 | 3.2 | 16.1 | 0.00 | 0.00 | 0.00 | 50 | 1010.3 |
| 20260503173528 | 5 | 76 | 3.2 | 16.1 | 0.00 | 0.00 | 0.00 | 49 | 1010.5 |
| 20260503173053 | 5 | 321 | 3.2 | 16.1 | 0.00 | 0.00 | 0.00 | 52 | 1010.6 |
| 20260503172531 | 5 | 352 | 4.8 | 16.1 | 0.00 | 0.00 | 0.00 | 49 | 1010.4 |
| 20260503172034 | 5 | 82 | 4.8 | 16.1 | 0.00 | 0.00 | 0.00 | 50 | 1010.4 |
| 20260503171542 | 5 | 307 | 3.2 | 12.9 | 0.00 | 0.00 | 0.00 | 48 | 1010.5 |
| 20260503171028 | 5 | 36 | 1.6 | 9.7 | 0.00 | 0.00 | 0.00 | 50 | 1010.7 |
| 20260503170529 | 5 | 225 | 3.2 | 9.7 | 0.00 | 0.00 | 0.00 | 50 | 1010.4 |
| 20260503150527 | 3 | 350 | 3.2 | 14.5 | 0.00 | 0.00 | 0.00 | 55 | 1010.8 |
| 20260503131033 | 2 | 331 | 1.6 | 9.7 | 0.00 | 0.00 | 0.00 | 70 | 1011.2 |
| 20260503130527 | 2 | 321 | 1.6 | 9.7 | 0.00 | 0.00 | 0.00 | 71 | 1011.3 |
| 20260503110530 | 0 | 96 | 1.6 | 3.2 | 0.00 | 0.00 | 0.00 | 79 | 1010.1 |
| 20260503100103 | -17 | 0.0 | 0.0 | 0.00 | 0.00 | 0.00 | 1009.9 | ||
| 20260503081542 | -17 | 57 | 1.6 | 4.8 | 0.00 | 0.00 | 0.00 | 1009.9 | |
| 20260503081030 | 0 | 296 | 1.6 | 4.8 | 0.00 | 0.00 | 0.00 | 80 | 1009.9 |
| 20260503080532 | 0 | 32 | 1.6 | 4.8 | 0.00 | 0.00 | 0.00 | 80 | 1010.0 |
| 20260503072533 | 0 | 0 | 0.0 | 3.2 | 0.00 | 0.00 | 0.00 | 80 | 1010.0 |
| 20260503072032 | 0 | 0 | 0.0 | 4.8 | 0.00 | 0.00 | 0.00 | 81 | 1010.1 |
| 20260503071539 | 0 | 17 | 1.6 | 4.8 | 0.00 | 0.00 | 0.00 | 81 | 1010.0 |
| 20260503071032 | 0 | 0 | 0.0 | 3.2 | 0.00 | 0.00 | 0.00 | 81 | 1010.0 |
| 20260503070530 | 0 | 78 | 0.0 | 3.2 | 0.00 | 0.00 | 0.00 | 81 | 1010.0 |